Regional Weather Roundup
Issued by NWS Newport/Morehead, NC

Current Version | Previous Version | Text Only | Print | Product List | Glossary On
Versions: 1 2 3 4 5 6 7 8 9 10 11 12 13 14 15 16 17 18 19 20 21 22 23 24 25 26 27 28 29 30 31 32 33 34 35 36 37 38 39 40 41 42 43 44 45 46 47 48 49 50
000
ASUS42 KMHX 211914
RWRMHX
WEATHER ROUNDUP FOR EASTERN NORTH CAROLINA
NATIONAL WEATHER SERVICE NEWPORT/MOREHEAD CITY NC
300 PM EDT FRI JUL 21 2017

NOTE: "FAIR" INDICATES FEW OR NO CLOUDS BELOW 12,000 FEET
WITH NO SIGNIFICANT WEATHER AND/OR OBSTRUCTIONS TO VISIBILITY

NCZ015>017-031-032-045>047-102-103-212000-
NORTH COAST

CITY           SKY/WX    TMP DP  RH WIND       PRES   REMARKS
EDENTON        MOSUNNY   94  78  59 CALM      29.96F HX 111
ELIZABETH CITY MOSUNNY   92  79  65 SW13      29.95F HX 108
KITTY HAWK     PTCLDY    91  76  60 S7        29.95F HX 103
MANTEO         SUNNY     88  79  75 S13       29.96F HX 103

$$

NCZ045>047-081-094-103-104-212000-
CENTRAL COAST

CITY           SKY/WX    TMP DP  RH WIND       PRES   REMARKS
FRISCO         SUNNY     87  77  72 SW10      30.00S

$$

NCZ095-097-098-100-101-212000-
SOUTHERN COAST

CITY           SKY/WX    TMP DP  RH WIND       PRES   REMARKS
BEAUFORT       SUNNY     86  80  82 SW18      30.00F HX 101
CEDAR ISLAND   NOT AVBL
JACKSONVILLE   SUNNY     93  76  57 SW7       29.97F HX 105
PINEY ISLAND   CLEAR    N/A N/A N/A S13       29.98F
WILMINGTON     MOSUNNY   92  74  55 S8        29.99F HX 101


$$

NCZ011>013-027>030-043-044-078>080-089-090>093-098-212000-
COASTAL PLAIN

CITY           SKY/WX    TMP DP  RH WIND       PRES   REMARKS
AHOSKIE          N/A     90  78  69 CALM      29.96S HX 104
CLINTON        MOSUNNY   94  75  55 CALM      29.98F HX 105
ELIZABETHTOWN  NOT AVBL
GOLDSBORO      MOSUNNY   95  76  53 SW10      29.95F HX 108
GREENVILLE     MOSUNNY   95  73  49 W7        29.98F HX 105
HAVELOCK       MOSUNNY   92  77  61 S10       29.99F HX 105
KENANSVILLE    MOSUNNY   95  73  49 SW7       29.98F HX 105
KINSTON        MOSUNNY   95  70  43 SW6       29.97F HX 101
NEW BERN       MOSUNNY   94  75  54 SW10      29.98F HX 105
RICHLANDS      SUNNY     94  75  54 S10       29.98F HX 105
ROCKY MOUNT    CLOUDY    94  75  54 SW7       29.96F HX 105
WASHINGTON     SUNNY     94  74  52 SW8       29.96F HX 103
WHITEVILLE     SUNNY     93  71  49 SW3       29.99F HX 100

$$

AMZ130-135-150-152-154-156-158-170-250-252-270-ANZ085-086-088-633-658-670-212000-
MARINE OBSERVATIONS

STATION/POSITION TIME  TEMP    WIND        PRES    WAVE   SWELL
                       AIR SEA DIR/SP/G            HT/PER HT/PER
                 (UTC) (F)     (DEG/KT/KT) (MB)    (FT/S) (FT/S)
CHESAPEAKE LIGHT NOT AVBL
64 E VA BEACH    1850   81 81  200/ 14/ 16 1014.6    2/ 8   2/ 8
DUCK             1848   82 58  160/  8/  9 1013.8
2 E DUCK         1900      70                N/A     2/14   2/14
OREGON INLET     1842   84 85  180/ 17/ 19 1014.8
13E OREGON INLT  1848      81                N/A     2/ 8   2/ 8
HATTERAS CG      1848   84 80  220/ 12/ 16 1015.8
DIAMOND BUOY     1850   83 85  210/ 16/ 19 1015.6    4/ 8   2/ 8
CAPE LOOKOUT     1900   84     220/ 10/ 14 1015.7
BEAUFORT LAB     1848   83 82  200/ 13/ 16 1015.3
30 SE NEW RVR IN 1808   81 82  230/ 12/ 14 1016.8
30 SE NEW RVR IN 1843      82                N/A     3/11   2/11
27 SE WRIGHTSVLE 1808   82 81  220/ 12/ 17 1016.7
5 SE WRIGHTSVLE  1808   82 82  200/ 12/ 17 1016.6
225 S CAPE HAT   1850   82 84  230/ 10/ 12 1018.7    4/ 9   3/ 9
41 SE CHARLESTON 1850   83 84  200/  8/ 12 1017.0    3/ 7   2/ 7

$$



USA.gov is the U.S. government's official web portal to all federal, state and local government web resources and services.